Location: Newark
(51.8900°N, 2.0780°W)
Time: 13:38:50
(UTC+00:00)

Envisat - Pass Details

Date: 23 November 2019
Orbit: 764 x 766 km, 98.1° (Epoch: 08 December)

Event Time Altitude Azimuth Distance (km) Brightness Sun altitude
Rises 18:08:26 0° 171° (S) 3,221 6.3 -18.0°
Reaches altitude 10° 18:10:45 10° 174° (S) 2,299 5.5 -18.3°
Maximum altitude 18:15:48 68° 257° (WSW) 827 3.3 -19.1°
Drops below altitude 10° 18:20:53 10° 341° (NNW) 2,315 5.6 -19.9°
Sets 18:23:13 0° 344° (NNW) 3,246 6.4 -20.2°
